{"data":{"norad_id":39077,"intl_designator":"2013-005F","name":"GLOBALSTAR M095","alt_names":[],"object_type":"PAYLOAD","status":"ACTIVE","operator":null,"country":"GLOB","launch_date":"2013-02-06","launch_site_code":"TYMSC","launch_vehicle":null,"mission":null,"orbit_class":"UNKNOWN","rcs_meters":4.8715,"size_class":null,"mass_kg":null,"dimensions":null,"purposes":["comms"],"wikipedia_slug":null,"has_3d_model":false,"image_url":null,"decayed_at":null,"tle_current":{"epoch":"2026-05-25T00:39:29.151936Z","epoch_age_seconds":82761,"freshness":"FRESH","line1":"1 39077U 13005F   26145.02742074 -.00000088  00000+0  87418-4 0  9997","line2":"2 39077  52.0099 351.7087 0000464 106.0986 253.9932 12.62263024612941","mean_motion":12.62263024,"eccentricity":4.64e-5,"inclination_deg":52.0099,"raan_deg":351.7087,"arg_perigee_deg":106.0986,"mean_anomaly_deg":253.9932,"bstar":8.7418e-5,"rev_number":61294,"period_min":114.0808193396,"perigee_km":1413.2560921533,"apogee_km":1413.9791669829,"semimajor_km":7791.7546295681,"source":"CELESTRAK","updated_at":"2026-05-25T13:38:23.047187Z"}}}